Regional Weather Roundup
Issued by NWS

Home | Current Version | Previous Version | Text Only | Print | Product List | Glossary On
Versions: 1 2 3 4 5 6 7 8 9 10 11 12 13 14 15 16 17 18 19 20 21 22 23 24 25 26 27 28 29 30 31 32 33 34 35 36 37 38 39 40 41 42 43 44 45 46 47 48 49 50
000
ASUS43 KMKX 050911
RWRWI

WISCONSIN REGIONAL WEATHER ROUNDUP
NATIONAL WEATHER SERVICE MILWAUKEE/SULLIVAN WI
400 AM CDT TUE MAY 05 2015

NOTE: "FAIR" INDICATES FEW OR NO CLOUDS BELOW 12,000 FEET WITH NO
SIGNIFICANT WEATHER AND/OR OBSTRUCTIONS TO VISIBILITY.

WIZ001-002-006>008-014>016-023>028-051000-
NORTHWEST WISCONSIN

CITY           SKY/WX    TMP DP  RH WIND       PRES   REMARKS
SUPERIOR ARPT  CLEAR     32  30  92 CALM      30.26S
ASHLAND        CLEAR     31  30  96 CALM      30.28S
HAYWARD        CLEAR     35  31  85 CALM      30.26S
SIREN          CLEAR     34  26  74 CALM      30.24S
CUMBERLAND     CLEAR     45  27  49 E6        30.23F
RICE LAKE      CLEAR     48  32  55 E7        30.25S
CHETEK         CLEAR     51  34  53 NE5       30.24S
LADYSMITH      CLEAR     50  35  56 E6        30.27F
EAU CLAIRE     MOCLDY    49  38  65 NE6       30.20F
MENOMONIE      PTCLDY    50  36  59 NE6       30.21S
NEW RICHMOND   CLEAR     51  26  38 E12       30.20S
OSCEOLA        CLEAR     50  27  41 E7        30.23S
$$

WIZ003>005-009-010-017-018-051000-
NORTH CENTRAL WISCONSIN

CITY           SKY/WX    TMP DP  RH WIND       PRES   REMARKS
MANITOWISH WTR CLEAR     33  32  97 CALM      30.29S
ARBOR VITAE    CLEAR     40  34  78 CALM      30.29R
WOODRUFF       CLEAR     40  34  78 CALM      30.29R
RHINELANDER    CLEAR     39  36  89 CALM      30.30R
EAGLE RIVER    CLEAR     34  33  97 CALM      30.29S
LAND O LAKES   CLEAR     32  32 100 CALM      30.30S
PHILLIPS       CLEAR     44  34  69 CALM      30.27S
TOMAHAWK       PTCLDY    33  31  93 CALM      30.29R
MEDFORD        MOCLDY    44  36  74 E8        30.25F
MERRILL        PTCLDY    39  37  93 NE3       30.27F
$$

WIZ029-030-035-036-043>047-051000-
CENTRAL WISCONSIN

CITY           SKY/WX    TMP DP  RH WIND       PRES   REMARKS
WAUSAU         CLOUDY    47  34  60 E9        30.24F
MOSINEE        CLOUDY    45  36  70 E9        30.26F
MARSHFIELD     CLOUDY    49  37  63 E12       30.23F
STEVENS POINT  CLOUDY    47  35  64 NE9       30.25S
WAUPACA        CLOUDY    50  39  66 CALM      30.25S
WAUTOMA        CLOUDY    51  37  58 NE7       30.23F
WISC RAPIDS    CLOUDY    51  35  54 E10       30.24S
CAMP DOUGLAS   CLOUDY    51  43  73 E7        30.20S
$$

WIZ011>013-019>022-031-037>040-048>050-051000-
NORTHEAST WISCONSIN

CITY           SKY/WX    TMP DP  RH WIND       PRES   REMARKS
ANTIGO         MOCLDY    44  33  65 E6        30.29R
SHAWANO        CLOUDY    50  37  61 NE7       30.28S
OCONTO         CLOUDY    43  37  79 NE5       30.28S
STURGEON BAY   CLOUDY    46  32  57 NE6       30.30S
GREEN BAY      CLOUDY    50  39  66 NE10      30.26S
MANITOWOC      CLOUDY    47  35  63 VRB5      30.26R
APPLETON       CLOUDY    48  34  57 NE6       30.25R
CLINTONVILLE   CLOUDY    46  36  66 NE7       30.27S
OSHKOSH        CLOUDY    54  35  48 E9        30.23S
$$

WIZ032>034-041-042-053>061-051000-
SOUTHWEST WISCONSIN

CITY           SKY/WX    TMP DP  RH WIND       PRES   REMARKS
LA CROSSE      CLOUDY    58  43  57 SE5       30.16S
SPARTA         CLOUDY    54  39  58 E9        30.20S
VIROQUA        CLOUDY    55  41  58 E12       30.17S
BOSCOBEL       LGT RAIN  53  47  79 VRB6      30.18R
PRAIRIE DU CHI LGT RAIN  54  48  80 E9        30.14S
PLATTEVILLE    CLOUDY    51  48  90 E13       30.15F
$$

WIZ056-057-062-063-064-067-068-051000-
SOUTH CENTRAL WISCONSIN

CITY           SKY/WX    TMP DP  RH WIND       PRES   REMARKS
REEDSBURG      LGT RAIN  54  40  60 E5        30.20R
BARABOO/DELLS  NOT AVBL
LONE ROCK      RAIN      52  47  83 E10       30.20S
MINERAL POINT  LGT RAIN  52  46  82 E10       30.17F
MADISON        LGT RAIN  53  44  71 E6        30.21R
MIDDLETON      CLOUDY    53  45  74 E7        30.22R
WATERTOWN      LGT RAIN  51  44  75 E5        30.22R
MONROE         RAIN      50  46  87 E8        30.18S
JANESVILLE     RAIN      52  46  82 E6        30.18F
$$

WIZ051-052-058>065-066-070>072-051000-
SOUTHEAST WISCONSIN

CITY           SKY/WX    TMP DP  RH WIND       PRES   REMARKS
MILWAUKEE      LGT RAIN  49  37  63 NE3       30.23R
WAUKESHA       RAIN      50  39  66 E5        30.24R
MILWAUKEE/TIMM RAIN      52  32  46 NE5       30.24R
RACINE         LGT RAIN  48  41  76 N5        30.24R
BURLINGTON     LGT RAIN  47  44  88 E7        30.21S
KENOSHA        LGT RAIN  50  46  86 CALM      30.23R FOG
FOND DU LAC    CLOUDY    53  34  48 NE8       30.24R
SHEBOYGAN      CLOUDY    47  37  68 NE10      30.25R
WEST BEND      LGT RAIN  50  34  53 NE7       30.24R
JUNEAU         CLOUDY    54  33  45 E6        30.23R
$$

LSZ147-162-051000-
LAKE SUPERIOR

STATION/POSITION TIME  TEMP    WIND        PRES    WAVE
                       AIR SEA DIR/SP/G            HT/PER
                 (UTC) (F)     (DEG/KT/KT) (MB)    (FT/S)
W MID LAKE BUOY  0850   39 35  180/  6/  6 1026.0R   0
DEVILS ISLAND    0900   53     100/  4/  4 1025.3S
PORT WING        0840   37     170/  4/  5 1024.7S
SAXON HARBOR     0840   36        CALM     1024.7R
$$

LMZ867-665-643>646-051000-
LAKE MICHIGAN

STATION/POSITION TIME  TEMP    WIND        PRES    WAVE
                       AIR SEA DIR/SP/G            HT/PER
                 (UTC) (F)     (DEG/KT/KT) (MB)    (FT/S)
CHAMBERS ISLAND  0800   43     360/  2/  3 1025.7S
NORTHPORT PIER   0800   44     320/  2/  2 1025.7R
SISTER BAY       0747   47     110/  1/  6   N/A
KEWAUNEE LAKESHO 0800   48      30/ 12/ 15 1023.9S
SHEBOYGAN LAKESH 0900   44      10/ 12/ 13 1025.0R
PORT WASHINGTON  0840   52      30/  5/  8 1024.4R
ATWATER BUOY     0800   47     350/  8/ 10 1024.2R
MILWAUKEE LAKESH 0800   53     360/  6/  7   N/A
KENOSHA   LAKESH 0900   49     360/  7/  8 1023.7R
$$

TC  - TEMPERATURE IN CELSIUS
VSB - VISIBILITY IN STATUTE MILES
WCI - WIND CHILL INDEX
HX  - HEAT INDEX



USA.gov is the U.S. government's official web portal to all federal, state and local government web resources and services.